< < Back
Terminal Aerodrome Forecast


Current Version              Previous Versions:   1  2  3  4  5  6  7  8  9  

Terminal Aerodrome Forecast

756
FTUS42 KCAE 210200 AAA
TAFCAE
TAF AMD
KCAE 210234Z 2103/2124 01005KT P6SM BKN060
     FM210400 01005KT P6SM SCT060
     FM211400 02008KT P6SM SCT250=

Latest METAR

572
SAUS80 KWBC 210700 CCA
MTRCAE
METAR KCAE 210656Z 35004KT 10SM CLR 14/07 A3012 RMK AO2 SLP199
T01390067


USA.gov is the U.S. government's official web portal to all federal, state and local government web resources and services.